sat.trackr.live / text

‹ back to catalog

HULIANWANG DIGUI-80

NORAD 65312 · 2025-187H

PAYLOAD ACTIVE UNKNOWN

§ Identity

Operator
Country
PRC
Launch date
2025-08-25
Launch site
WSC
Launch vehicle
Mass (kg)
RCS (m²)

External: N2YO · Heavens-Above · Gunter

§ Orbital elements

Epoch: 2026-09-20T22:11:19.419648Z

Period
108.33 min
Inclination
50.0020°
Eccentricity
0.0000934
Mean motion
13.29325787 rev/d
Perigee alt
1,148.6 km
Apogee alt
1,150.0 km
Semi-major
7,527.4 km
B*
6.7158e-5
RAAN
222.5319°
Arg perigee
3.5514°
Mean anomaly
356.5365°
Rev number
5,243

§ Raw data

HULIANWANG DIGUI-801 65312U 25187H   26263.92453032 -.00000093  00000+0  67158-4 0  99902 65312  50.0020 222.5319 0000934   3.5514 356.5365 13.29325787 52438

JSON: /api/v1/satellites/65312 · /tle

For live sub-satellite position, see the globe view (requires WebGL).

§ Visibility from observer

Set your observer location to see the next 7 days of passes ≥ 10°. The values pass through the URL so the page stays shareable.

No JS? Fill the form by hand. The geolocation button needs JavaScript.